OMD8 KABQ-CYQR

Flight info

Callsign OMD8
Flight time 2h 41m
Altitude 35000
Route LARGO3 ABQ DCT ALS/N0455F340 DCT HELPS DCT HAREI/N0447F350 DCT MBW/N0441F340 DCT GCC DCT SHOTO/N0443F350 DCT PETBO/N0444F340 DCT GORAK GORAK2
Aircraft A306/H-SDE3FGHIRWY/LB1

Departure

Time 2026-04-26 21:57
Airport Albuquerque International Sunport (KABQ)

Arrival

Time 2026-04-27 00:39
Airport Regina International Airport (CYQR)
Time Latitude Longitude Altitude Speed Heading
2026-04-26 21:36 35.04721 -106.58951 5359 ft 0 kts 225°
2026-04-26 21:53 35.04715 -106.58957 5356 ft 1 kts 216°
2026-04-26 21:53 35.04709 -106.58959 5356 ft 1 kts 204°
2026-04-26 21:54 35.04690 -106.58951 5356 ft 8 kts 141°
2026-04-26 21:54 35.04652 -106.58829 5357 ft 20 kts 147°
2026-04-26 21:54 35.04580 -106.58728 5360 ft 18 kts 100°
2026-04-26 21:54 35.04577 -106.58533 5361 ft 27 kts 91°
2026-04-26 21:55 35.04576 -106.58275 5366 ft 34 kts 90°
2026-04-26 21:55 35.04574 -106.57958 5369 ft 40 kts 90°
2026-04-26 21:55 35.04569 -106.57630 5368 ft 30 kts 105°
2026-04-26 21:55 35.04507 -106.57575 5369 ft 0 kts 173°
2026-04-26 21:56 35.04497 -106.57574 5369 ft 4 kts 174°
2026-04-26 21:56 35.04453 -106.57570 5369 ft 8 kts 176°
2026-04-26 21:56 35.04413 -106.57596 5370 ft 7 kts 239°
2026-04-26 21:56 35.04407 -106.57650 5369 ft 7 kts 268°
2026-04-26 21:57 35.04408 -106.58014 5367 ft 94 kts 271°
2026-04-26 21:57 35.04405 -106.59127 5358 ft 161 kts 265°
2026-04-26 21:57 35.04437 -106.60636 5821 ft 190 kts 269°
2026-04-26 21:57 35.04486 -106.62297 6414 ft 204 kts 268°
2026-04-26 21:58 35.04577 -106.64057 7038 ft 215 kts 268°
2026-04-26 21:58 35.04617 -106.66022 7121 ft 249 kts 267°
2026-04-26 21:58 35.04624 -106.68268 7142 ft 277 kts 267°
2026-04-26 21:58 35.04620 -106.70718 7240 ft 296 kts 267°
2026-04-26 21:59 35.04611 -106.73228 7491 ft 300 kts 267°
2026-04-26 21:59 35.04605 -106.75765 7553 ft 297 kts 267°
2026-04-26 21:59 35.04600 -106.78290 7590 ft 302 kts 267°
2026-04-26 21:59 35.04806 -106.80848 8083 ft 306 kts 283°
2026-04-26 22:00 35.05833 -106.83141 8691 ft 315 kts 305°
2026-04-26 22:00 35.07598 -106.84813 9211 ft 330 kts 327°
2026-04-26 22:00 35.09818 -106.85720 9711 ft 341 kts 340°
2026-04-26 22:00 35.12170 -106.86096 10118 ft 350 kts 354°
2026-04-26 22:01 35.14619 -106.85741 10572 ft 358 kts
2026-04-26 22:01 35.17053 -106.84979 11037 ft 364 kts 12°
2026-04-26 22:01 35.19461 -106.83974 11372 ft 367 kts 16°
2026-04-26 22:01 35.21858 -106.82841 11963 ft 370 kts 17°
2026-04-26 22:02 35.24255 -106.81662 12440 ft 372 kts 18°
2026-04-26 22:02 35.25853 -106.80874 12746 ft 374 kts 17°
2026-04-26 22:02 35.29083 -106.79308 13384 ft 378 kts 17°
2026-04-26 22:02 35.31547 -106.78137 13826 ft 380 kts 17°
2026-04-26 22:03 35.34033 -106.76973 14260 ft 382 kts 16°
2026-04-26 22:03 35.36535 -106.75812 14692 ft 385 kts 16°
2026-04-26 22:03 35.39057 -106.74647 15130 ft 387 kts 15°
2026-04-26 22:03 35.41581 -106.73481 15582 ft 389 kts 15°
2026-04-26 22:04 35.44098 -106.72319 16035 ft 392 kts 15°
2026-04-26 22:04 35.46659 -106.71135 16497 ft 394 kts 14°
2026-04-26 22:04 35.49254 -106.69933 16967 ft 397 kts 14°
2026-04-26 22:04 35.51833 -106.68737 17470 ft 400 kts 14°
2026-04-26 22:05 35.54451 -106.67522 17969 ft 402 kts 14°
2026-04-26 22:05 35.57057 -106.66312 18354 ft 407 kts 14°
2026-04-26 22:05 35.59749 -106.65065 18544 ft 417 kts 14°
2026-04-26 22:05 35.62487 -106.63795 18798 ft 423 kts 14°
2026-04-26 22:06 35.65272 -106.62499 19092 ft 427 kts 14°
2026-04-26 22:06 35.68059 -106.61199 19423 ft 430 kts 14°
2026-04-26 22:06 35.70844 -106.59896 19768 ft 432 kts 14°
2026-04-26 22:06 35.73674 -106.58573 20147 ft 434 kts 14°
2026-04-26 22:07 35.76505 -106.57247 20514 ft 436 kts 14°
2026-04-26 22:07 35.79327 -106.55927 20822 ft 440 kts 14°
2026-04-26 22:07 35.82204 -106.54582 21150 ft 442 kts 14°
2026-04-26 22:07 35.84111 -106.53689 21372 ft 444 kts 14°
2026-04-26 22:08 35.87997 -106.51869 21769 ft 448 kts 13°
2026-04-26 22:08 35.90885 -106.50515 22018 ft 450 kts 13°
2026-04-26 22:08 35.93828 -106.49133 22316 ft 452 kts 13°
2026-04-26 22:08 35.96781 -106.47745 22643 ft 453 kts 13°
2026-04-26 22:09 35.99750 -106.46349 22930 ft 456 kts 13°
2026-04-26 22:09 36.02683 -106.44969 23185 ft 458 kts 13°
2026-04-26 22:09 36.05675 -106.43560 23403 ft 460 kts 13°
2026-04-26 22:09 36.08674 -106.42146 23710 ft 459 kts 13°
2026-04-26 22:10 36.11669 -106.40730 23977 ft 459 kts 13°
2026-04-26 22:10 36.14620 -106.39336 24248 ft 459 kts 13°
2026-04-26 22:10 36.17641 -106.37907 24491 ft 459 kts 13°
2026-04-26 22:10 36.20593 -106.36511 24625 ft 460 kts 13°
2026-04-26 22:11 36.23618 -106.35084 24644 ft 467 kts 13°
2026-04-26 22:11 36.26685 -106.33639 24643 ft 473 kts 13°
2026-04-26 22:11 36.29746 -106.32193 24643 ft 478 kts 13°
2026-04-26 22:11 36.32864 -106.30716 24643 ft 480 kts 13°
2026-04-26 22:12 36.36002 -106.29223 24645 ft 481 kts 13°
2026-04-26 22:12 36.39105 -106.27744 24648 ft 481 kts 13°
2026-04-26 22:12 36.42241 -106.26248 24650 ft 481 kts 13°
2026-04-26 22:12 36.45368 -106.24756 24659 ft 481 kts 13°
2026-04-26 22:13 36.48501 -106.23262 24661 ft 481 kts 13°
2026-04-26 22:13 36.51594 -106.21786 24667 ft 481 kts 13°
2026-04-26 22:13 36.54725 -106.20291 24668 ft 481 kts 13°
2026-04-26 22:13 36.57864 -106.18791 24674 ft 480 kts 13°
2026-04-26 22:14 36.60983 -106.17300 24686 ft 481 kts 13°
2026-04-26 22:14 36.63058 -106.16309 24683 ft 481 kts 13°
2026-04-26 22:14 36.67200 -106.14326 24682 ft 481 kts 13°
2026-04-26 22:14 36.70335 -106.12823 24692 ft 480 kts 13°
2026-04-26 22:15 36.72421 -106.11822 24691 ft 480 kts 13°
2026-04-26 22:15 36.75552 -106.10319 24694 ft 480 kts 13°
2026-04-26 22:15 36.78638 -106.08836 24690 ft 480 kts 13°
2026-04-26 22:15 36.81759 -106.07335 24696 ft 480 kts 13°
2026-04-26 22:16 36.84638 -106.05949 24700 ft 479 kts 14°
2026-04-26 22:16 36.87767 -106.04442 24698 ft 478 kts 14°
2026-04-26 22:16 36.90875 -106.02942 24687 ft 477 kts 14°
2026-04-26 22:16 36.93972 -106.01448 24693 ft 476 kts 14°
2026-04-26 22:17 36.96546 -106.00204 24696 ft 476 kts 14°
2026-04-26 22:17 36.99638 -105.98710 24698 ft 475 kts 14°
2026-04-26 22:17 37.02725 -105.97217 24686 ft 474 kts 14°
2026-04-26 22:17 37.05801 -105.95727 24687 ft 474 kts 14°
2026-04-26 22:18 37.08879 -105.94236 24690 ft 473 kts 14°
2026-04-26 22:18 37.11947 -105.92748 24704 ft 472 kts 14°
2026-04-26 22:18 37.15014 -105.91260 24710 ft 472 kts 14°
2026-04-26 22:18 37.18042 -105.89789 24733 ft 471 kts 14°
2026-04-26 22:19 37.21097 -105.88304 24746 ft 471 kts 14°
2026-04-26 22:19 37.24155 -105.86815 24758 ft 470 kts 14°
2026-04-26 22:19 37.27213 -105.85326 24772 ft 469 kts 14°
2026-04-26 22:19 37.30257 -105.83842 24787 ft 469 kts 14°
2026-04-26 22:20 37.33283 -105.82432 24804 ft 463 kts
2026-04-26 22:20 37.36405 -105.81883 24818 ft 444 kts 351°
2026-04-26 22:20 37.39374 -105.82517 24811 ft 422 kts 332°
2026-04-26 22:20 37.41891 -105.84209 24814 ft 402 kts 314°
2026-04-26 22:21 37.43710 -105.86699 24816 ft 384 kts 295°
2026-04-26 22:21 37.44701 -105.89741 24814 ft 371 kts 277°
2026-04-26 22:21 37.44747 -105.92944 24809 ft 364 kts 258°
2026-04-26 22:21 37.44043 -105.96005 24813 ft 364 kts 249°
2026-04-26 22:22 37.43074 -105.98956 24807 ft 365 kts 248°
2026-04-26 22:22 37.42278 -106.01992 24796 ft 365 kts 256°
2026-04-26 22:22 37.41933 -106.05128 24779 ft 368 kts 265°
2026-04-26 22:22 37.42051 -106.08350 24775 ft 371 kts 273°
2026-04-26 22:23 37.42531 -106.11561 24762 ft 375 kts 279°
2026-04-26 22:23 37.43240 -106.14738 24754 ft 377 kts 282°
2026-04-26 22:23 37.44060 -106.17870 24738 ft 378 kts 283°
2026-04-26 22:23 37.44923 -106.20996 24740 ft 377 kts 284°
2026-04-26 22:24 37.45786 -106.24121 24753 ft 377 kts 284°
2026-04-26 22:24 37.46621 -106.27207 24768 ft 376 kts 283°
2026-04-26 22:24 37.47448 -106.30336 24770 ft 376 kts 283°
2026-04-26 22:24 37.48260 -106.33467 24784 ft 375 kts 283°
2026-04-26 22:25 37.49059 -106.36596 24792 ft 375 kts 283°
2026-04-26 22:25 37.49849 -106.39710 24793 ft 375 kts 283°
2026-04-26 22:25 37.50642 -106.42846 24795 ft 375 kts 283°
2026-04-26 22:25 37.51435 -106.45990 24801 ft 376 kts 283°
2026-04-26 22:26 37.52229 -106.49136 24797 ft 376 kts 283°
2026-04-26 22:26 37.53020 -106.52269 24798 ft 375 kts 283°
2026-04-26 22:26 37.53801 -106.55370 24790 ft 375 kts 283°
2026-04-26 22:26 37.54594 -106.58517 24798 ft 376 kts 283°
2026-04-26 22:27 37.55387 -106.61667 24791 ft 376 kts 283°
2026-04-26 22:27 37.56171 -106.64787 24784 ft 377 kts 283°
2026-04-26 22:27 37.56963 -106.67944 24771 ft 377 kts 283°
2026-04-26 22:27 37.57756 -106.71106 24776 ft 377 kts 283°
2026-04-26 22:28 37.58549 -106.74272 24769 ft 377 kts 283°
2026-04-26 22:28 37.59328 -106.77390 24759 ft 377 kts 283°
2026-04-26 22:28 37.60125 -106.80551 24758 ft 378 kts 284°
2026-04-26 22:28 37.61407 -106.83515 24758 ft 391 kts 303°
2026-04-26 22:29 37.63466 -106.85780 24758 ft 408 kts 321°
2026-04-26 22:29 37.66147 -106.87152 24768 ft 427 kts 340°
2026-04-26 22:29 37.69177 -106.87408 24741 ft 444 kts 358°
2026-04-26 22:29 37.72231 -106.86455 24752 ft 459 kts 17°
2026-04-26 22:30 37.75046 -106.84604 24754 ft 465 kts 25°
2026-04-26 22:30 37.77884 -106.82607 24743 ft 464 kts 22°
2026-04-26 22:30 37.80809 -106.80930 24734 ft 459 kts 15°
2026-04-26 22:30 37.83830 -106.79666 24734 ft 454 kts
2026-04-26 22:31 37.86892 -106.78755 24721 ft 450 kts
2026-04-26 22:31 37.89969 -106.78084 24725 ft 448 kts
2026-04-26 22:31 37.93055 -106.77544 24716 ft 446 kts
2026-04-26 22:31 37.96104 -106.77068 24716 ft 447 kts
2026-04-26 22:32 37.99191 -106.76597 24711 ft 446 kts
2026-04-26 22:32 38.02294 -106.76114 24715 ft 447 kts
2026-04-26 22:32 38.05383 -106.75617 24701 ft 447 kts
2026-04-26 22:32 38.08472 -106.75106 24701 ft 447 kts
2026-04-26 22:33 38.11537 -106.74588 24701 ft 447 kts
2026-04-26 22:33 38.17733 -106.73526 24693 ft 448 kts
2026-04-26 22:33 38.20785 -106.73001 24701 ft 448 kts
2026-04-26 22:34 38.23875 -106.72469 24705 ft 448 kts
2026-04-26 22:34 38.26963 -106.71938 24722 ft 448 kts
2026-04-26 22:34 38.30062 -106.71404 24735 ft 448 kts
2026-04-26 22:34 38.33157 -106.70871 24760 ft 447 kts
2026-04-26 22:35 38.36215 -106.70344 24760 ft 448 kts
2026-04-26 22:35 38.39314 -106.69811 24838 ft 449 kts
2026-04-26 22:35 38.42415 -106.69277 24947 ft 450 kts
2026-04-26 22:35 38.45529 -106.68739 25103 ft 450 kts
2026-04-26 22:36 38.48636 -106.68202 25250 ft 450 kts
2026-04-26 22:36 38.51747 -106.67664 25403 ft 449 kts
2026-04-26 22:36 38.54822 -106.67131 25516 ft 450 kts
2026-04-26 22:36 38.57917 -106.66595 25694 ft 448 kts
2026-04-26 22:37 38.61012 -106.66058 25854 ft 448 kts
2026-04-26 22:37 38.64102 -106.65521 26016 ft 448 kts
2026-04-26 22:37 38.67199 -106.64983 26175 ft 448 kts
2026-04-26 22:37 38.70251 -106.64452 26367 ft 447 kts
2026-04-26 22:38 38.73343 -106.63914 26541 ft 447 kts
2026-04-26 22:38 38.76430 -106.63376 26692 ft 445 kts
2026-04-26 22:38 38.79514 -106.62839 26716 ft 447 kts
2026-04-26 22:38 38.82554 -106.62309 26713 ft 446 kts
2026-04-26 22:39 38.85658 -106.61767 26710 ft 446 kts
2026-04-26 22:39 38.88737 -106.61229 26713 ft 446 kts
2026-04-26 22:39 38.91814 -106.60692 26704 ft 446 kts
2026-04-26 22:39 38.94862 -106.60158 26723 ft 446 kts
2026-04-26 22:40 38.97942 -106.59619 26723 ft 446 kts
2026-04-26 22:40 39.01029 -106.59078 26738 ft 446 kts
2026-04-26 22:40 39.04107 -106.58538 26754 ft 446 kts
2026-04-26 22:40 39.07180 -106.57997 26782 ft 446 kts
2026-04-26 22:41 39.10221 -106.57432 26777 ft 446 kts
2026-04-26 22:41 39.13300 -106.56828 26800 ft 447 kts
2026-04-26 22:41 39.16381 -106.56208 26792 ft 447 kts
2026-04-26 22:41 39.19459 -106.55583 26801 ft 447 kts
2026-04-26 22:42 39.22532 -106.54960 26803 ft 446 kts
2026-04-26 22:42 39.25595 -106.54341 26806 ft 447 kts
2026-04-26 22:42 39.27274 -106.54002 26821 ft 447 kts
2026-04-26 22:42 39.30354 -106.53382 26802 ft 446 kts
2026-04-26 22:43 39.33430 -106.52764 26789 ft 447 kts
2026-04-26 22:43 39.36507 -106.52146 26786 ft 446 kts
2026-04-26 22:43 39.39586 -106.51528 26764 ft 446 kts
2026-04-26 22:43 39.42623 -106.50918 26764 ft 447 kts
2026-04-26 22:44 39.45695 -106.50301 26746 ft 447 kts
2026-04-26 22:44 39.48771 -106.49681 26722 ft 447 kts
2026-04-26 22:44 39.51848 -106.49060 26697 ft 446 kts
2026-04-26 22:44 39.54912 -106.48442 26691 ft 446 kts
2026-04-26 22:45 39.57984 -106.47821 26693 ft 446 kts
2026-04-26 22:45 39.61048 -106.47201 26692 ft 446 kts
2026-04-26 22:45 39.64120 -106.46580 26692 ft 447 kts
2026-04-26 22:45 39.67207 -106.45955 26689 ft 446 kts
2026-04-26 22:46 39.70242 -106.45339 26680 ft 446 kts
2026-04-26 22:46 39.73316 -106.44715 26677 ft 446 kts
2026-04-26 22:46 39.76386 -106.44091 26671 ft 445 kts
2026-04-26 22:46 39.79447 -106.43469 26673 ft 445 kts
2026-04-26 22:47 39.82522 -106.42843 26676 ft 445 kts
2026-04-26 22:47 39.85548 -106.42227 26668 ft 445 kts
2026-04-26 22:47 39.88603 -106.41604 26664 ft 444 kts
2026-04-26 22:47 39.91663 -106.40980 26667 ft 444 kts
2026-04-26 22:48 39.94721 -106.40356 26662 ft 444 kts
2026-04-26 22:48 39.97771 -106.39732 26668 ft 444 kts
2026-04-26 22:48 40.00828 -106.39106 26659 ft 443 kts
2026-04-26 22:48 40.03842 -106.38490 26665 ft 443 kts
2026-04-26 22:49 40.06906 -106.37862 26662 ft 443 kts
2026-04-26 22:49 40.09944 -106.37239 26676 ft 445 kts
2026-04-26 22:49 40.13014 -106.36611 26843 ft 445 kts
2026-04-26 22:49 40.16071 -106.35981 27097 ft 443 kts
2026-04-26 22:50 40.19123 -106.35351 27313 ft 441 kts
2026-04-26 22:50 40.22120 -106.34733 27470 ft 441 kts
2026-04-26 22:50 40.25156 -106.34107 27682 ft 441 kts
2026-04-26 22:50 40.28194 -106.33480 27948 ft 440 kts
2026-04-26 22:51 40.31215 -106.32856 28185 ft 439 kts
2026-04-26 22:51 40.34243 -106.32230 28412 ft 438 kts
2026-04-26 22:51 40.37218 -106.31615 28625 ft 437 kts
2026-04-26 22:52 40.43246 -106.30367 28672 ft 437 kts
2026-04-26 22:52 40.49229 -106.29128 28676 ft 436 kts
2026-04-26 22:53 40.55243 -106.27878 28680 ft 436 kts
2026-04-26 22:53 40.61224 -106.26633 28680 ft 435 kts
2026-04-26 22:54 40.67207 -106.25385 28681 ft 435 kts
2026-04-26 22:54 40.73148 -106.24143 28682 ft 435 kts
2026-04-26 22:55 40.79132 -106.22891 28680 ft 434 kts
2026-04-26 22:55 40.85110 -106.21637 28676 ft 434 kts
2026-04-26 22:56 40.91048 -106.20390 28680 ft 434 kts
2026-04-26 22:56 40.97028 -106.19131 28675 ft 434 kts
2026-04-26 22:57 41.03001 -106.17871 28668 ft 434 kts
2026-04-26 22:57 41.08932 -106.16619 28670 ft 434 kts
2026-04-26 22:58 41.14914 -106.15353 28668 ft 434 kts
2026-04-26 22:58 41.20887 -106.14087 28658 ft 435 kts
2026-04-26 22:59 41.26874 -106.12815 28659 ft 435 kts
2026-04-26 22:59 41.32817 -106.11550 28663 ft 435 kts
2026-04-26 23:00 41.38813 -106.10271 28663 ft 435 kts
2026-04-26 23:00 41.44792 -106.08994 28657 ft 435 kts 360°
2026-04-26 23:01 41.50755 -106.07717 28654 ft 435 kts 360°
2026-04-26 23:01 41.56705 -106.06442 28649 ft 436 kts 360°
2026-04-26 23:02 41.61699 -106.05371 28657 ft 436 kts 359°
2026-04-26 23:02 41.68690 -106.03865 28660 ft 437 kts 359°
2026-04-26 23:03 41.73687 -106.02787 28657 ft 437 kts 359°
2026-04-26 23:03 41.79706 -106.01487 28658 ft 437 kts 359°
2026-04-26 23:04 41.85715 -106.00213 28660 ft 437 kts 358°
2026-04-26 23:04 41.91701 -105.99119 28669 ft 436 kts 357°
2026-04-26 23:05 41.97733 -105.98079 28664 ft 436 kts 357°
2026-04-26 23:05 42.03763 -105.97029 28665 ft 437 kts 357°
2026-04-26 23:06 42.09763 -105.95967 28666 ft 437 kts 357°
2026-04-26 23:06 42.15811 -105.94888 28665 ft 438 kts 357°
2026-04-26 23:07 42.21832 -105.93810 28668 ft 437 kts 357°
2026-04-26 23:07 42.27898 -105.92722 28669 ft 437 kts 357°
2026-04-26 23:08 42.33889 -105.91646 28673 ft 436 kts 357°
2026-04-26 23:08 42.39908 -105.90565 28673 ft 436 kts 357°
2026-04-26 23:09 42.45932 -105.89481 28679 ft 436 kts 357°
2026-04-26 23:09 42.51953 -105.88395 28686 ft 436 kts 357°
2026-04-26 23:10 42.57970 -105.87313 28796 ft 440 kts 357°
2026-04-26 23:10 42.60996 -105.86762 29175 ft 437 kts 357°
2026-04-26 23:10 42.64001 -105.86212 29479 ft 435 kts 357°
2026-04-26 23:10 42.66999 -105.85666 29726 ft 435 kts 357°
2026-04-26 23:11 42.70013 -105.85119 29929 ft 435 kts 357°
2026-04-26 23:11 42.73014 -105.84574 30145 ft 434 kts 357°
2026-04-26 23:11 42.76015 -105.84029 30369 ft 434 kts 357°
2026-04-26 23:11 42.78984 -105.83489 30588 ft 434 kts 357°
2026-04-26 23:12 42.81979 -105.82943 30828 ft 433 kts 357°
2026-04-26 23:12 42.84942 -105.82402 31054 ft 433 kts 357°
2026-04-26 23:12 42.87945 -105.81854 31281 ft 433 kts 357°
2026-04-26 23:12 42.90931 -105.81307 31508 ft 433 kts 357°
2026-04-26 23:13 42.93920 -105.80760 31729 ft 432 kts 357°
2026-04-26 23:13 42.96911 -105.80212 31978 ft 432 kts 358°
2026-04-26 23:13 42.99887 -105.79666 32228 ft 431 kts 358°
2026-04-26 23:13 43.02831 -105.79126 32464 ft 431 kts 358°
2026-04-26 23:14 43.05809 -105.78579 32681 ft 430 kts 358°
2026-04-26 23:14 43.11765 -105.77484 32736 ft 431 kts 358°
2026-04-26 23:15 43.17698 -105.76391 32746 ft 432 kts 358°
2026-04-26 23:15 43.23669 -105.75289 32750 ft 432 kts 358°
2026-04-26 23:16 43.29588 -105.74193 32760 ft 433 kts 358°
2026-04-26 23:16 43.35572 -105.73084 32772 ft 433 kts 358°
2026-04-26 23:17 43.41536 -105.71976 32779 ft 435 kts 359°
2026-04-26 23:17 43.47562 -105.70855 32790 ft 436 kts 359°
2026-04-26 23:18 43.53582 -105.69732 32801 ft 436 kts 359°
2026-04-26 23:18 43.59581 -105.68609 32810 ft 437 kts 359°
2026-04-26 23:19 43.65615 -105.67479 32810 ft 437 kts 359°
2026-04-26 23:19 43.71620 -105.66352 32823 ft 438 kts 359°
2026-04-26 23:20 43.77680 -105.65212 32821 ft 438 kts 359°
2026-04-26 23:20 43.83722 -105.64072 32838 ft 438 kts 359°
2026-04-26 23:21 43.89726 -105.62938 32828 ft 438 kts 359°
2026-04-26 23:21 43.92748 -105.62367 32710 ft 437 kts
2026-04-26 23:21 43.95779 -105.61795 32823 ft 440 kts
2026-04-26 23:22 44.01883 -105.60640 32831 ft 443 kts
2026-04-26 23:22 44.07956 -105.59484 32821 ft 442 kts
2026-04-26 23:23 44.14048 -105.58322 32815 ft 441 kts
2026-04-26 23:23 44.20100 -105.57167 32812 ft 440 kts
2026-04-26 23:24 44.26170 -105.56007 32806 ft 440 kts
2026-04-26 23:24 44.32203 -105.54851 32813 ft 439 kts
2026-04-26 23:25 44.38282 -105.53893 32817 ft 438 kts
2026-04-26 23:25 44.44342 -105.53313 32814 ft 437 kts
2026-04-26 23:26 44.50426 -105.52783 32814 ft 437 kts
2026-04-26 23:26 44.56518 -105.52214 32807 ft 437 kts
2026-04-26 23:27 44.62560 -105.51622 32812 ft 437 kts
2026-04-26 23:27 44.68642 -105.51016 32808 ft 437 kts
2026-04-26 23:28 44.74730 -105.50409 32808 ft 437 kts
2026-04-26 23:28 44.80790 -105.49805 32812 ft 437 kts
2026-04-26 23:29 44.86837 -105.49202 32813 ft 437 kts
2026-04-26 23:29 44.92921 -105.48594 32818 ft 437 kts
2026-04-26 23:30 44.98977 -105.47987 32827 ft 437 kts
2026-04-26 23:30 45.05074 -105.47375 32826 ft 437 kts
2026-04-26 23:31 45.11113 -105.46767 32831 ft 437 kts
2026-04-26 23:31 45.17202 -105.46153 32833 ft 437 kts
2026-04-26 23:32 45.23248 -105.45542 32835 ft 437 kts
2026-04-26 23:32 45.29329 -105.44926 32839 ft 437 kts
2026-04-26 23:33 45.35392 -105.44311 32840 ft 436 kts
2026-04-26 23:33 45.41415 -105.43698 32846 ft 436 kts
2026-04-26 23:34 45.47498 -105.43078 32842 ft 436 kts
2026-04-26 23:34 45.53559 -105.42459 32845 ft 436 kts
2026-04-26 23:35 45.59607 -105.41840 32850 ft 436 kts
2026-04-26 23:35 45.65643 -105.41221 32853 ft 437 kts
2026-04-26 23:36 45.71713 -105.40597 32854 ft 437 kts
2026-04-26 23:36 45.77768 -105.39973 32860 ft 437 kts
2026-04-26 23:37 45.83817 -105.39349 32865 ft 438 kts
2026-04-26 23:37 45.89913 -105.38718 32867 ft 438 kts
2026-04-26 23:38 45.96009 -105.38086 32864 ft 439 kts
2026-04-26 23:38 46.02072 -105.37456 32874 ft 439 kts 360°
2026-04-26 23:39 46.08177 -105.36819 32866 ft 439 kts 360°
2026-04-26 23:39 46.14245 -105.36186 32870 ft 439 kts 359°
2026-04-26 23:40 46.20366 -105.35546 32876 ft 440 kts 359°
2026-04-26 23:40 46.26481 -105.34905 32877 ft 440 kts 359°
2026-04-26 23:41 46.32576 -105.34264 32885 ft 441 kts 359°
2026-04-26 23:41 46.38709 -105.33618 32889 ft 441 kts 359°
2026-04-26 23:42 46.44753 -105.31877 32898 ft 449 kts 13°
2026-04-26 23:42 46.53652 -105.27324 32910 ft 452 kts 16°
2026-04-26 23:43 46.59545 -105.24256 32918 ft 452 kts 15°
2026-04-26 23:43 46.65509 -105.21267 32922 ft 452 kts 15°
2026-04-26 23:44 46.71441 -105.18340 32927 ft 453 kts 14°
2026-04-26 23:44 46.77433 -105.15385 32940 ft 454 kts 14°
2026-04-26 23:45 46.82424 -105.12914 32946 ft 454 kts 14°
2026-04-26 23:45 46.89411 -105.09443 32951 ft 455 kts 14°
2026-04-26 23:46 46.95392 -105.06463 32958 ft 456 kts 14°
2026-04-26 23:46 47.01373 -105.03474 32955 ft 456 kts 14°
2026-04-26 23:47 47.07396 -105.00458 32847 ft 452 kts 14°
2026-04-26 23:47 47.10366 -104.98965 32058 ft 450 kts 14°
2026-04-26 23:47 47.13332 -104.97478 30802 ft 461 kts 14°
2026-04-26 23:48 47.16406 -104.95942 29550 ft 471 kts 14°
2026-04-26 23:48 47.19500 -104.94388 28623 ft 468 kts 14°
2026-04-26 23:48 47.22580 -104.92833 27525 ft 468 kts 14°
2026-04-26 23:48 47.25663 -104.91275 26409 ft 469 kts 14°
2026-04-26 23:49 47.28754 -104.89712 25280 ft 469 kts 14°
2026-04-26 23:49 47.31816 -104.88161 24158 ft 469 kts 14°
2026-04-26 23:49 47.34906 -104.86596 23044 ft 466 kts 14°
2026-04-26 23:49 47.37953 -104.85045 22268 ft 454 kts 14°
2026-04-26 23:50 47.40891 -104.83543 21725 ft 437 kts 14°
2026-04-26 23:50 47.43711 -104.82101 20891 ft 430 kts 14°
2026-04-26 23:50 47.46553 -104.80656 19880 ft 428 kts 15°
2026-04-26 23:50 47.49354 -104.79234 18856 ft 428 kts 15°
2026-04-26 23:51 47.52170 -104.77804 17798 ft 425 kts 16°
2026-04-26 23:51 47.54948 -104.76389 16848 ft 417 kts 16°
2026-04-26 23:51 47.56753 -104.75467 16259 ft 411 kts 16°
2026-04-26 23:51 47.59431 -104.74096 15517 ft 400 kts 17°
2026-04-26 23:52 47.62861 -104.72337 15097 ft 388 kts 17°
2026-04-26 23:52 47.64559 -104.71467 15058 ft 386 kts 17°
2026-04-26 23:52 47.67098 -104.70166 15052 ft 385 kts 17°
2026-04-26 23:52 47.69640 -104.68863 15053 ft 385 kts 17°
2026-04-26 23:53 47.72172 -104.67563 15050 ft 385 kts 17°
2026-04-26 23:53 47.74705 -104.66260 15052 ft 385 kts 17°
2026-04-26 23:53 47.77247 -104.64951 15054 ft 385 kts 17°
2026-04-26 23:53 47.79756 -104.63658 15050 ft 386 kts 17°
2026-04-26 23:54 47.82290 -104.62349 15053 ft 385 kts 17°
2026-04-26 23:54 47.84838 -104.61032 15057 ft 386 kts 17°
2026-04-26 23:54 47.87376 -104.59719 15058 ft 386 kts 17°
2026-04-26 23:54 47.89914 -104.58404 15064 ft 386 kts 17°
2026-04-26 23:55 47.92448 -104.57091 15070 ft 386 kts 17°
2026-04-26 23:55 47.94960 -104.55787 15067 ft 387 kts 16°
2026-04-26 23:55 47.97506 -104.54464 14983 ft 385 kts 16°
2026-04-26 23:55 47.99980 -104.53173 14885 ft 364 kts 16°
2026-04-26 23:56 48.02299 -104.51956 14703 ft 344 kts 16°
2026-04-26 23:56 48.04515 -104.50793 14484 ft 329 kts 16°
2026-04-26 23:56 48.06621 -104.49691 14230 ft 318 kts 16°
2026-04-26 23:56 48.08689 -104.48611 13935 ft 310 kts 16°
2026-04-26 23:57 48.10756 -104.47536 13131 ft 316 kts 16°
2026-04-26 23:57 48.12841 -104.46457 12181 ft 326 kts 17°
2026-04-26 23:57 48.15019 -104.45327 11159 ft 335 kts 17°
2026-04-26 23:57 48.17248 -104.44166 10060 ft 343 kts 18°
2026-04-26 23:58 48.19514 -104.42980 9017 ft 345 kts 19°
2026-04-26 23:58 48.21780 -104.41789 8102 ft 342 kts 19°
2026-04-26 23:58 48.23980 -104.40632 7277 ft 337 kts 20°
2026-04-26 23:58 48.26174 -104.39477 6474 ft 331 kts 21°
2026-04-26 23:59 48.28326 -104.38344 5694 ft 323 kts 20°
2026-04-26 23:59 48.30401 -104.37250 5214 ft 306 kts 19°
2026-04-26 23:59 48.32345 -104.36223 4969 ft 284 kts 19°
2026-04-26 23:59 48.34153 -104.35265 4751 ft 265 kts 19°
2026-04-27 00:00 48.35829 -104.34377 4427 ft 253 kts 19°
2026-04-27 00:00 48.37468 -104.33509 4087 ft 247 kts 19°
2026-04-27 00:00 48.39082 -104.32656 4011 ft 239 kts 19°
2026-04-27 00:00 48.40591 -104.31858 4014 ft 229 kts 19°
2026-04-27 00:01 48.42086 -104.31067 4015 ft 226 kts 19°
2026-04-27 00:01 48.43576 -104.30278 4014 ft 226 kts 19°
2026-04-27 00:01 48.45061 -104.29492 4016 ft 226 kts 19°
2026-04-27 00:01 48.46545 -104.28705 4022 ft 226 kts 19°
2026-04-27 00:02 48.48035 -104.27915 4019 ft 226 kts 18°
2026-04-27 00:02 48.49520 -104.27126 4018 ft 226 kts 19°
2026-04-27 00:02 48.50990 -104.26345 4023 ft 226 kts 19°
2026-04-27 00:02 48.52474 -104.25556 4009 ft 226 kts 18°
2026-04-27 00:03 48.53969 -104.24760 4010 ft 227 kts 19°
2026-04-27 00:03 48.55457 -104.23968 4010 ft 227 kts 19°
2026-04-27 00:03 48.56932 -104.23183 4010 ft 227 kts 19°
2026-04-27 00:03 48.58474 -104.22362 4016 ft 244 kts 19°
2026-04-27 00:04 48.60147 -104.21471 4020 ft 262 kts 19°
2026-04-27 00:04 48.61893 -104.20540 4017 ft 268 kts 19°
2026-04-27 00:04 48.63659 -104.19597 4012 ft 269 kts 19°
2026-04-27 00:04 48.65404 -104.18665 4014 ft 269 kts 19°
2026-04-27 00:05 48.67177 -104.17716 4014 ft 269 kts 19°
2026-04-27 00:05 48.68947 -104.16768 4011 ft 269 kts 19°
2026-04-27 00:05 48.70718 -104.15819 4010 ft 269 kts 19°
2026-04-27 00:05 48.72470 -104.14880 4009 ft 269 kts 19°
2026-04-27 00:06 48.74245 -104.13928 4014 ft 270 kts 19°
2026-04-27 00:06 48.76002 -104.12985 4016 ft 270 kts 19°
2026-04-27 00:06 48.77774 -104.12032 4016 ft 270 kts 19°
2026-04-27 00:06 48.79551 -104.11077 4022 ft 271 kts 19°
2026-04-27 00:07 48.81331 -104.10118 4020 ft 271 kts 19°
2026-04-27 00:07 48.83111 -104.09160 4021 ft 271 kts 19°
2026-04-27 00:07 48.84870 -104.08211 4025 ft 271 kts 19°
2026-04-27 00:07 48.86658 -104.07246 4030 ft 272 kts 19°
2026-04-27 00:08 48.88442 -104.06284 4036 ft 272 kts 19°
2026-04-27 00:08 48.90228 -104.05321 4038 ft 272 kts 19°
2026-04-27 00:08 48.91993 -104.04367 4028 ft 271 kts 19°
2026-04-27 00:08 48.93276 -104.03672 4038 ft 272 kts 19°
2026-04-27 00:09 48.94245 -104.03148 4046 ft 273 kts 19°
2026-04-27 00:09 48.96036 -104.02177 4045 ft 273 kts 19°
2026-04-27 00:09 48.97805 -104.01218 4048 ft 273 kts 19°
2026-04-27 00:10 48.99611 -104.00322 4041 ft 272 kts 11°
2026-04-27 00:10 49.01505 -104.00153 4052 ft 272 kts
2026-04-27 00:10 49.03406 -104.00148 4051 ft 273 kts 359°
2026-04-27 00:10 49.05305 -104.00216 4050 ft 273 kts 358°
2026-04-27 00:11 49.07183 -104.00298 4044 ft 273 kts 358°
2026-04-27 00:11 49.09082 -104.00383 4051 ft 273 kts 358°
2026-04-27 00:11 49.10987 -104.00467 4055 ft 273 kts 358°
2026-04-27 00:11 49.12886 -104.00549 4046 ft 273 kts 358°
2026-04-27 00:12 49.14789 -104.00632 4055 ft 273 kts 358°
2026-04-27 00:12 49.16692 -104.00713 4058 ft 274 kts 358°
2026-04-27 00:12 49.18602 -104.00795 4065 ft 274 kts 358°
2026-04-27 00:12 49.20512 -104.00878 4055 ft 273 kts 358°
2026-04-27 00:13 49.22337 -104.00955 4053 ft 253 kts 358°
2026-04-27 00:13 49.24035 -104.01026 4049 ft 234 kts 357°
2026-04-27 00:13 49.25613 -104.01093 4052 ft 221 kts 357°
2026-04-27 00:13 49.27125 -104.01159 4055 ft 214 kts 357°
2026-04-27 00:14 49.28613 -104.01223 4054 ft 214 kts 357°
2026-04-27 00:14 49.30123 -104.01289 4064 ft 226 kts 357°
2026-04-27 00:14 49.31716 -104.01358 4064 ft 231 kts 357°
2026-04-27 00:14 49.33330 -104.01428 4062 ft 233 kts 357°
2026-04-27 00:15 49.34961 -104.01498 4066 ft 234 kts 357°
2026-04-27 00:15 49.36589 -104.01567 4058 ft 233 kts 357°
2026-04-27 00:15 49.38199 -104.01637 4064 ft 234 kts 357°
2026-04-27 00:15 49.39825 -104.01707 4063 ft 234 kts 357°
2026-04-27 00:16 49.41449 -104.01777 4059 ft 233 kts 357°
2026-04-27 00:16 49.43068 -104.01846 4055 ft 226 kts 357°
2026-04-27 00:16 49.44577 -104.01908 4058 ft 210 kts 357°
2026-04-27 00:16 49.46004 -104.01969 4061 ft 205 kts 357°
2026-04-27 00:17 49.47426 -104.02031 4065 ft 204 kts 357°
2026-04-27 00:17 49.48845 -104.02094 4065 ft 203 kts 357°
2026-04-27 00:17 49.50261 -104.02156 4070 ft 203 kts 357°
2026-04-27 00:17 49.51656 -104.02217 4064 ft 203 kts 357°
2026-04-27 00:18 49.53071 -104.02279 4063 ft 203 kts 357°
2026-04-27 00:18 49.54481 -104.02340 4066 ft 202 kts 357°
2026-04-27 00:18 49.55875 -104.02400 4062 ft 202 kts 356°
2026-04-27 00:18 49.57289 -104.02461 4068 ft 200 kts 356°
2026-04-27 00:19 49.58671 -104.02520 4070 ft 195 kts 357°
2026-04-27 00:19 49.60020 -104.02578 4064 ft 193 kts 356°
2026-04-27 00:19 49.61369 -104.02637 4067 ft 193 kts 356°
2026-04-27 00:19 49.62702 -104.02695 4068 ft 193 kts 356°
2026-04-27 00:20 49.64045 -104.02754 4074 ft 193 kts 356°
2026-04-27 00:20 49.65392 -104.02813 4065 ft 193 kts 356°
2026-04-27 00:20 49.66736 -104.02871 4067 ft 193 kts 357°
2026-04-27 00:20 49.68068 -104.02929 4075 ft 193 kts 356°
2026-04-27 00:21 49.69414 -104.02989 4078 ft 193 kts 356°
2026-04-27 00:21 49.70757 -104.03048 4074 ft 192 kts 356°
2026-04-27 00:21 49.72083 -104.03106 4074 ft 192 kts 356°
2026-04-27 00:21 49.73412 -104.03163 4068 ft 187 kts 356°
2026-04-27 00:22 49.74699 -104.03218 4068 ft 183 kts 356°
2026-04-27 00:22 49.75978 -104.03275 4075 ft 183 kts 356°
2026-04-27 00:22 49.77246 -104.03331 4081 ft 182 kts 356°
2026-04-27 00:22 49.78505 -104.03386 4076 ft 182 kts 356°
2026-04-27 00:23 49.79773 -104.03442 4074 ft 182 kts 356°
2026-04-27 00:23 49.81048 -104.03498 4079 ft 182 kts 356°
2026-04-27 00:23 49.82317 -104.03553 4088 ft 181 kts 356°
2026-04-27 00:23 49.83562 -104.03607 4099 ft 177 kts 356°
2026-04-27 00:24 49.84793 -104.03661 4079 ft 176 kts 356°
2026-04-27 00:24 49.86009 -104.03715 4084 ft 176 kts 356°
2026-04-27 00:24 49.87236 -104.03770 4079 ft 176 kts 356°
2026-04-27 00:24 49.88464 -104.03824 4084 ft 176 kts 356°
2026-04-27 00:25 49.89706 -104.03879 4081 ft 185 kts 356°
2026-04-27 00:25 49.91044 -104.03940 4081 ft 197 kts 356°
2026-04-27 00:25 49.92431 -104.04002 4083 ft 200 kts 356°
2026-04-27 00:25 49.93815 -104.04062 4080 ft 201 kts 356°
2026-04-27 00:26 49.95211 -104.04123 4080 ft 200 kts 356°
2026-04-27 00:26 49.96597 -104.04183 4077 ft 197 kts 356°
2026-04-27 00:26 49.97951 -104.04242 4078 ft 193 kts 356°
2026-04-27 00:26 49.99289 -104.04302 4079 ft 191 kts 356°
2026-04-27 00:27 50.00597 -104.04618 4080 ft 189 kts 334°
2026-04-27 00:27 50.01677 -104.05759 4084 ft 188 kts 319°
2026-04-27 00:27 50.02641 -104.07133 4082 ft 188 kts 316°
2026-04-27 00:27 50.03574 -104.08528 4089 ft 188 kts 316°
2026-04-27 00:28 50.04524 -104.09946 4093 ft 188 kts 315°
2026-04-27 00:28 50.05475 -104.11357 4084 ft 188 kts 316°
2026-04-27 00:28 50.06428 -104.12762 4084 ft 189 kts 316°
2026-04-27 00:28 50.07372 -104.14150 4090 ft 189 kts 316°
2026-04-27 00:29 50.08324 -104.15548 4081 ft 188 kts 316°
2026-04-27 00:29 50.09281 -104.16954 4082 ft 188 kts 316°
2026-04-27 00:29 50.10236 -104.18356 4087 ft 188 kts 316°
2026-04-27 00:29 50.11177 -104.19737 4089 ft 188 kts 316°
2026-04-27 00:30 50.12131 -104.21137 4088 ft 188 kts 316°
2026-04-27 00:30 50.13092 -104.22549 4094 ft 192 kts 316°
2026-04-27 00:30 50.14078 -104.24000 4089 ft 196 kts 316°
2026-04-27 00:30 50.15071 -104.25461 4086 ft 197 kts 316°
2026-04-27 00:31 50.16074 -104.26936 4096 ft 197 kts 316°
2026-04-27 00:31 50.17060 -104.28389 4089 ft 197 kts 316°
2026-04-27 00:31 50.18061 -104.29863 4087 ft 196 kts 316°
2026-04-27 00:31 50.19057 -104.31332 4060 ft 196 kts 316°
2026-04-27 00:32 50.20035 -104.32774 4054 ft 196 kts 316°
2026-04-27 00:32 50.21028 -104.34241 4044 ft 196 kts 316°
2026-04-27 00:32 50.22022 -104.35709 4041 ft 196 kts 316°
2026-04-27 00:32 50.22991 -104.37141 4035 ft 184 kts 316°
2026-04-27 00:33 50.23898 -104.38481 4031 ft 179 kts 316°
2026-04-27 00:33 50.24800 -104.39816 4032 ft 178 kts 316°
2026-04-27 00:33 50.25698 -104.41146 4030 ft 178 kts 316°
2026-04-27 00:33 50.26574 -104.42442 3837 ft 170 kts 315°
2026-04-27 00:34 50.27431 -104.43714 3537 ft 169 kts 315°
2026-04-27 00:34 50.28287 -104.44984 3194 ft 169 kts 315°
2026-04-27 00:34 50.29134 -104.46240 3018 ft 167 kts 315°
2026-04-27 00:34 50.29978 -104.47467 3011 ft 168 kts 317°
2026-04-27 00:35 50.30846 -104.48700 3015 ft 168 kts 317°
2026-04-27 00:35 50.31716 -104.49925 3010 ft 168 kts 317°
2026-04-27 00:35 50.32590 -104.51154 3010 ft 168 kts 317°
2026-04-27 00:35 50.33449 -104.52359 3002 ft 166 kts 317°
2026-04-27 00:36 50.34282 -104.53529 2989 ft 157 kts 317°
2026-04-27 00:36 50.35068 -104.54631 3000 ft 147 kts 317°
2026-04-27 00:36 50.35825 -104.55694 2996 ft 145 kts 317°
2026-04-27 00:36 50.36574 -104.56747 2991 ft 144 kts 317°
2026-04-27 00:37 50.37322 -104.57798 2995 ft 144 kts 317°
2026-04-27 00:37 50.38055 -104.58830 2982 ft 142 kts 316°
2026-04-27 00:37 50.38778 -104.59862 2859 ft 139 kts 317°
2026-04-27 00:37 50.39502 -104.60873 2749 ft 139 kts 316°
2026-04-27 00:38 50.40214 -104.61894 2594 ft 138 kts 316°
2026-04-27 00:38 50.40937 -104.62893 2419 ft 139 kts 317°
2026-04-27 00:38 50.41414 -104.63554 2292 ft 137 kts 316°
2026-04-27 00:38 50.42349 -104.64880 2035 ft 132 kts 316°
2026-04-27 00:39 50.42941 -104.65718 1917 ft 83 kts 320°
2026-04-27 00:39 50.43099 -104.65942 1899 ft 0 kts 316°
2026-04-27 00:39 50.43125 -104.65979 1899 ft 11 kts 318°
2026-04-27 00:40 50.43200 -104.66084 1900 ft 20 kts 319°
2026-04-27 00:40 50.43329 -104.66265 1901 ft 28 kts 319°
2026-04-27 00:40 50.43464 -104.66233 1906 ft 24 kts 48°
2026-04-27 00:40 50.43486 -104.66195 1905 ft 0 kts 47°
2026-04-27 00:41 50.43489 -104.66187 1899 ft 5 kts 58°
2026-04-27 00:41 50.43452 -104.66068 1905 ft 15 kts 136°
2026-04-27 00:41 50.43363 -104.65946 1903 ft 18 kts 139°
2026-04-27 00:41 50.43269 -104.65815 1909 ft 19 kts 139°
2026-04-27 00:42 50.43188 -104.65650 1899 ft 19 kts 112°
2026-04-27 00:42 50.43152 -104.65482 1902 ft 18 kts 101°
2026-04-27 00:42 50.43114 -104.65362 1899 ft 0 kts 137°